Time_in_sec,Mx,My,Mz
1314274903.45647335,-0.31155193,0.50642371,-0.80294365
1314274903.49549341,-0.30985159,0.50777698,-0.80152726
1314274903.55549002,-0.30934557,0.50954098,-0.80191022
1314274903.60443473,-0.31263980,0.50641185,-0.80074584
1314274903.65546632,-0.31025943,0.50778168,-0.80155057
1314274903.70746613,-0.31005108,0.50560105,-0.79833210
1314274903.75645161,-0.30990535,0.50955027,-0.80220813
1314274903.80747628,-0.30983272,0.50638819,-0.80138290
1314274903.85647464,-0.30982065,0.50789702,-0.80099463
1314274903.90453172,-0.31166232,0.50513667,-0.80041468
1314274903.95566964,-0.31205475,0.50730366,-0.80218130
1314274904.00444412,-0.30916923,0.50635904,-0.79935080
1314274904.05650663,-0.31068164,0.50650537,-0.79970413
1314274904.10447574,-0.31312287,0.50476944,-0.79996365
1314274904.15649295,-0.31106716,0.50778955,-0.80146384
1314274904.20467782,-0.31202862,0.50384969,-0.79763448
1314274904.25646639,-0.31099430,0.50627768,-0.80178249
1314274904.30445766,-0.31141391,0.50779539,-0.80181772
1314274904.35557914,-0.30835184,0.50875443,-0.80032092
1314274904.40445137,-0.30913490,0.50659293,-0.79782444
1314274904.45620227,-0.30861479,0.50762278,-0.80032754
1314274904.50444078,-0.31102541,0.50551486,-0.80104578
1314274904.55642629,-0.30980271,0.50764173,-0.80072582
1314274904.60447335,-0.31201324,0.50601196,-0.79937774
1314274904.65648031,-0.31009862,0.50664198,-0.80126703
1314274904.70457411,-0.31027088,0.50511491,-0.79980332
1314274904.75545526,-0.31045562,0.50625920,-0.80048698
1314274904.80442667,-0.31102040,0.50589168,-0.80091536
1314274904.85544062,-0.31104928,0.50652683,-0.80132049
1314274904.90560913,-0.31092775,0.50423688,-0.79956841
1314274904.95658016,-0.31037152,0.50677127,-0.80128360
1314274905.00447917,-0.30780852,0.50523424,-0.80165750
1314274905.05647159,-0.31036782,0.50688505,-0.80028927
1314274905.10391736,-0.31026480,0.50701571,-0.80081600
1314274905.15558314,-0.30951500,0.50827783,-0.80171287
1314274905.20443583,-0.31173801,0.50627333,-0.80062878
1314274905.25658917,-0.31095639,0.50652218,-0.80111760
1314274905.30629134,-0.31152728,0.50626868,-0.80028242
1314274905.35647321,-0.31001642,0.50841373,-0.80194020
1314274905.40639448,-0.31191120,0.50626874,-0.79990554
1314274905.45645714,-0.31037554,0.50626832,-0.80141300
1314274905.50441289,-0.31135008,0.50716513,-0.80174124
1314274905.55547714,-0.30968583,0.50600672,-0.80123878
1314274905.60443640,-0.31064942,0.50652367,-0.80143058
1314274905.65659237,-0.30974790,0.50674975,-0.79991847
1314274905.70854688,-0.31123355,0.50449836,-0.80011958
1314274905.75645280,-0.31143689,0.50705582,-0.80320764
1314274905.80900002,-0.30894020,0.50674188,-0.80000520
1314274905.85647845,-0.31075528,0.50878620,-0.80065584
1314274905.90845180,-0.31019369,0.50650984,-0.80060685
1314274905.95576453,-0.31038642,0.50765562,-0.80142397
1314274906.01162553,-0.30961600,0.50624526,-0.80004013
1314274906.05648303,-0.31177607,0.50840813,-0.79964787
1314274906.10762119,-0.31049356,0.50601459,-0.80115199
1314274906.15572858,-0.31006530,0.50854897,-0.80274159
1314274906.20852995,-0.31065840,0.50665134,-0.80156493
1314274906.25650716,-0.31016079,0.50637758,-0.80007225
1314274906.30452275,-0.30822131,0.50586951,-0.80168581
1314274906.35550022,-0.31240344,0.50795108,-0.80340242
1314274906.40446377,-0.31158343,0.50625497,-0.79895622
1314274906.45812583,-0.31048542,0.50802791,-0.80076772
1314274906.50455999,-0.31037280,0.50687301,-0.79902458
1314274906.55646825,-0.31113130,0.50777739,-0.80027103
1314274906.60450244,-0.31143361,0.50448775,-0.79893452
1314274906.65646529,-0.31070155,0.50701290,-0.79997492
1314274906.70879102,-0.31102535,0.50652224,-0.80092031
1314274906.75830150,-0.31030372,0.50625455,-0.80021244
1314274906.80451441,-0.31026071,0.50788343,-0.79929155
1314274906.85738182,-0.31101555,0.50825894,-0.79827398
1314274906.90750551,-0.31163427,0.50664246,-0.79975957
1314274906.95847988,-0.30873898,0.50864118,-0.80093837
1314274907.00745440,-0.31185031,0.50663489,-0.79884136
1314274907.05650306,-0.31043467,0.50663298,-0.80008978
1314274907.10828257,-0.31037822,0.50510007,-0.79841596
1314274907.15551782,-0.31084061,0.50801080,-0.79899561
1314274907.20468616,-0.31233573,0.50802803,-0.79908115
1314274907.25564861,-0.30942565,0.50697738,-0.79810971
1314274907.30757213,-0.31126478,0.50597984,-0.79727703
1314274907.35646200,-0.31017897,0.50825822,-0.79922545
1314274907.40714622,-0.31083211,0.50584453,-0.79685259
1314274907.45646596,-0.30891186,0.50773221,-0.79848468
1314274907.50769234,-0.31068975,0.50813228,-0.79872209
1314274907.55556917,-0.30935085,0.50759250,-0.79678100
1314274907.60479403,-0.31048051,0.50582612,-0.79550338
1314274907.65648651,-0.31160066,0.50635976,-0.79696399
1314274907.70854378,-0.31100520,0.50682288,-0.79374301
1314274907.75645375,-0.30953103,0.50862163,-0.79832482
1314274907.80852818,-0.31227934,0.50724888,-0.79687643
1314274907.85644627,-0.31157064,0.50761330,-0.79630691
1314274907.90465522,-0.31003740,0.50582588,-0.79580724
1314274907.95607781,-0.30930644,0.50646234,-0.79709953
1314274908.00445962,-0.31113064,0.50661945,-0.79813546
1314274908.05597734,-0.30988145,0.50632417,-0.79540324
1314274908.10858917,-0.31040931,0.50632739,-0.79516757
1314274908.15664411,-0.30996785,0.50825405,-0.79887879
1314274908.20761871,-0.31025943,0.50556761,-0.79502046
1314274908.25648475,-0.31052598,0.50697935,-0.79704010
1314274908.29596591,-0.31131181,0.50622743,-0.79668063
1314274908.35658073,-0.30914748,0.50758970,-0.79656714
1314274908.40464830,-0.31031668,0.50531566,-0.79509151
1314274908.45658326,-0.31025311,0.50749260,-0.79829371
1314274908.50845051,-0.30938014,0.50618881,-0.79517740
1314274908.55646229,-0.31067279,0.50800318,-0.79845434
1314274908.60860014,-0.31128606,0.50558180,-0.79541463
1314274908.65647912,-0.30931863,0.50761080,-0.79850703
1314274908.70444465,-0.31077498,0.50609660,-0.79678196
1314274908.75592208,-0.31068486,0.50685936,-0.79744714
1314274908.80442405,-0.31163856,0.50611514,-0.79762900
1314274908.85580778,-0.31067061,0.50713295,-0.79944229
1314274908.90769148,-0.31100106,0.50533539,-0.79612452
1314274908.95648551,-0.31174314,0.50889373,-0.79812342
1314274909.01143980,-0.31015751,0.50545996,-0.79694414
1314274909.05646014,-0.31234407,0.50699800,-0.79708040
1314274909.10847902,-0.31079882,0.50674385,-0.79845220
1314274909.15557671,-0.30944467,0.50635147,-0.79850483
1314274909.20751333,-0.30864674,0.50494719,-0.79758233
1314274909.25660372,-0.31139049,0.50813138,-0.79776275
1314274909.30855799,-0.31030801,0.50572723,-0.79808182
1314274909.35643244,-0.31042257,0.50814182,-0.79970151
1314274909.40857267,-0.31208068,0.50534636,-0.79605335
1314274909.45646691,-0.31024179,0.50750202,-0.79902178
1314274909.50932264,-0.31201923,0.50576127,-0.79950917
1314274909.55802035,-0.31070083,0.50686240,-0.79771394
1314274909.60466409,-0.31118494,0.50433868,-0.79705817
1314274909.65651774,-0.31034878,0.50787580,-0.79849893
1314274909.70872116,-0.31105343,0.50664222,-0.80045956
1314274909.75646830,-0.30922067,0.50635755,-0.79928952
1314274909.80455613,-0.30953971,0.50621933,-0.79784477
1314274909.85646224,-0.30967221,0.50788134,-0.79985827
1314274909.90453219,-0.31294677,0.50437170,-0.79842436
1314274909.95643735,-0.31017211,0.50636846,-0.79934394
1314274910.00443649,-0.31026906,0.50749564,-0.79856044
1314274910.05645990,-0.30986631,0.50711423,-0.79866749
1314274910.10426259,-0.30986381,0.50469726,-0.79665589
1314274910.15646577,-0.30903652,0.50737834,-0.80061561
1314274910.20428228,-0.31282672,0.50538033,-0.79855788
1314274910.25646162,-0.30957502,0.50711888,-0.79924667
1314274910.30431390,-0.31011474,0.50863552,-0.79902291
1314274910.35557818,-0.30998853,0.50790465,-0.80153602
1314274910.40810156,-0.30995116,0.50409526,-0.79911280
1314274910.45546055,-0.30943900,0.50812471,-0.79911345
1314274910.50416160,-0.31078431,0.50740653,-0.80131191
1314274910.55653977,-0.31009784,0.50749892,-0.79888058
1314274910.60849261,-0.31048387,0.50573647,-0.79875660
1314274910.65648723,-0.31156307,0.50778663,-0.80069453
1314274910.70413589,-0.30986091,0.50687283,-0.79952705
1314274910.75648570,-0.31023493,0.50625455,-0.80040991
1314274910.80465961,-0.31146947,0.50662404,-0.79835671
1314274910.85599661,-0.30879468,0.50612199,-0.80125701
1314274910.90796590,-0.30963936,0.50674200,-0.79944921
1314274910.95945120,-0.31009552,0.50892061,-0.80228239
1314274911.00410962,-0.30890059,0.50737679,-0.80060786
1314274911.05658317,-0.30977604,0.50588685,-0.80184293
1314274911.10444784,-0.31086066,0.50650388,-0.79951715
1314274911.15655160,-0.31004372,0.50840712,-0.80147821
1314274911.20467210,-0.30989045,0.50409728,-0.79944390
1314274911.25596690,-0.30956325,0.50725543,-0.80037898
1314274911.30857944,-0.31019863,0.50714040,-0.80061179
1314274911.35646892,-0.31093919,0.50778949,-0.80158943
1314274911.40756917,-0.30997497,0.50611466,-0.79926211
1314274911.45645976,-0.31029934,0.50778931,-0.80221754
1314274911.50394845,-0.31102106,0.50704956,-0.80305088
1314274911.55596352,-0.30964148,0.50854123,-0.80245143
1314274911.60475302,-0.31044364,0.50676060,-0.80022418
1314274911.65557146,-0.31026736,0.50879061,-0.80155849
1314274911.70782995,-0.31171224,0.50439066,-0.80134249
1314274911.75646472,-0.30997527,0.50830436,-0.80353218
1314274911.80747771,-0.31009459,0.50714493,-0.80113763
1314274911.85647845,-0.31014511,0.50856423,-0.80407554
1314274911.90843725,-0.31081262,0.50587636,-0.79970694
1314274911.95548916,-0.31001085,0.50662524,-0.79979968
1314274912.00843453,-0.31037048,0.50765252,-0.80115718
1314274912.05545855,-0.30978000,0.50639123,-0.80184686
1314274912.10760880,-0.31044468,0.50551486,-0.80174541
1314274912.15645289,-0.31140161,0.50832105,-0.80381447
1314274912.20760107,-0.31053275,0.50550729,-0.80095297
1314274912.25647545,-0.31020477,0.50551784,-0.80226338
1314274912.30748343,-0.31121591,0.50705099,-0.80312991
1314274912.35558963,-0.31025940,0.50842398,-0.80281967
1314274912.41055179,-0.31151912,0.50489545,-0.80166930
1314274912.45547915,-0.31101617,0.50703722,-0.80205518
1314274912.50755143,-0.31116602,0.50779682,-0.80220228
1314274912.55656552,-0.30943894,0.50778413,-0.80276805
1314274912.60854578,-0.31187180,0.50403273,-0.80314493
1314274912.65660524,-0.30947191,0.50690919,-0.80342793
1314274912.70440722,-0.31062347,0.50590235,-0.80242300
1314274912.75547194,-0.31061122,0.50542086,-0.80454522
1314274912.80446339,-0.30994281,0.50677562,-0.80225772
1314274912.85643411,-0.31133878,0.50843495,-0.80274850
1314274912.90449977,-0.31078431,0.50603455,-0.80283189
1314274912.95462728,-0.31081089,0.50644177,-0.80549449
1314274913.00450063,-0.31171879,0.50591636,-0.80261862
1314274913.05646396,-0.30906424,0.50589728,-0.80353004
1314274913.10743451,-0.31134695,0.50541496,-0.80325812
1314274913.15565133,-0.30991858,0.50679541,-0.80411714
1314274913.20441628,-0.31048161,0.50514424,-0.80240929
1314274913.25545168,-0.31091505,0.50842720,-0.80245847
1314274913.31156898,-0.31009424,0.50881892,-0.80454093
1314274913.35645700,-0.30835444,0.50969726,-0.80570984
1314274913.40757132,-0.31111652,0.50487822,-0.80038154
1314274913.45647335,-0.30960929,0.50855953,-0.80417788
1314274913.50445938,-0.31043726,0.50804311,-0.80222732
1314274913.55555916,-0.31071192,0.50744158,-0.80463135
1314274913.60442042,-0.31159282,0.50655746,-0.80361164
1314274913.65612888,-0.31010026,0.50792605,-0.80340362
1314274913.70416021,-0.31034961,0.50601149,-0.80101085
1314274913.75644875,-0.31082025,0.50690967,-0.80197495
1314274913.80848789,-0.31177869,0.50581300,-0.80454725
1314274913.85645175,-0.30858651,0.50814539,-0.80205756
1314274913.90446877,-0.31083316,0.50616980,-0.80363309
1314274913.95560527,-0.31152770,0.50605458,-0.80393773
1314274914.00444722,-0.30986089,0.50451821,-0.80343240
1314274914.05658245,-0.31049788,0.50512290,-0.80041653
1314274914.10745120,-0.31098837,0.50552112,-0.80177653
1314274914.15647149,-0.30943441,0.50867647,-0.80350405
1314274914.20858598,-0.30996776,0.50525624,-0.80151516
1314274914.25647712,-0.31204748,0.50745261,-0.80430889
1314274914.30746388,-0.31029934,0.50778931,-0.80221754
1314274914.35598969,-0.30982935,0.50804901,-0.80338901
1314274914.40441704,-0.31136209,0.50666374,-0.80200404
1314274914.45653248,-0.30850077,0.50791335,-0.80384386
1314274914.50757790,-0.30918759,0.50678921,-0.80414063
1314274914.55573654,-0.30882162,0.50704437,-0.80478626
1314274914.60372329,-0.31144196,0.50567156,-0.80346352
1314274914.65648246,-0.30816251,0.50816202,-0.80402702
1314274914.70772290,-0.31150112,0.50564736,-0.80127513
1314274914.75658536,-0.30962485,0.50603271,-0.80382890
1314274914.80843353,-0.31146580,0.50730169,-0.80274731
1314274914.85652995,-0.31024155,0.50716156,-0.80267638
1314274914.90759826,-0.31054506,0.50756001,-0.80409098
1314274914.95646358,-0.30984595,0.50920999,-0.80579138
1314274915.00745606,-0.31200489,0.50704223,-0.80137891
1314274915.05645943,-0.31023410,0.50969017,-0.80315846
1314274915.10848999,-0.31061319,0.50704491,-0.80302757
1314274915.15552521,-0.30876073,0.50741053,-0.80372202
1314274915.20841837,-0.31093001,0.50667882,-0.80384052
1314274915.25569940,-0.30853671,0.50741655,-0.80450690
1314274915.30858922,-0.30846721,0.50662327,-0.80117369
1314274915.35645509,-0.30950159,0.50803524,-0.80243969
1314274915.40762544,-0.31171915,0.50527346,-0.80134946
1314274915.45647049,-0.31026947,0.50702804,-0.80181140
1314274915.50742745,-0.31248161,0.50668234,-0.80259985
1314274915.55544186,-0.31131688,0.50705731,-0.80346668
1314274915.60457063,-0.31178647,0.50662267,-0.79777414
1314274915.65643883,-0.31160405,0.50691295,-0.80148798
1314274915.70446396,-0.31126428,0.50740057,-0.80027580
1314274915.75448012,-0.30921271,0.50790292,-0.80215633
1314274915.80745912,-0.30901328,0.50685734,-0.79894680
1314274915.85671234,-0.30815619,0.50976086,-0.80011582
1314274915.90429878,-0.31137565,0.50623965,-0.79774785
1314274915.95647740,-0.31131652,0.50587499,-0.79907107
1314274916.00443578,-0.31078807,0.50471389,-0.79717124
1314274916.05631518,-0.31038672,0.50763124,-0.79916394
1314274916.10750914,-0.31122994,0.50696737,-0.79521918
1314274916.15645695,-0.31128547,0.50800985,-0.79828757
1314274916.20750809,-0.31191286,0.50433129,-0.79563743
1314274916.25646591,-0.30990046,0.50569814,-0.79579848
1314274916.30845737,-0.31029192,0.50773901,-0.79756415
1314274916.35559320,-0.30939436,0.50846952,-0.79605603
1314274916.40415955,-0.31102520,0.50632298,-0.79413927
1314274916.45617819,-0.31095996,0.50685173,-0.79660159
1314274916.50446343,-0.31061640,0.50582767,-0.79551113
1314274916.55438304,-0.30994633,0.50811225,-0.79761624
1314274916.60448694,-0.30955040,0.50440997,-0.79371196
1314274916.65648031,-0.31098726,0.50620300,-0.79487056
1314274916.70444846,-0.31087434,0.50507277,-0.79538733
1314274916.75659108,-0.31093806,0.50746411,-0.79480743
1314274916.80441856,-0.31059107,0.50709325,-0.79584831
1314274916.85659480,-0.30878776,0.50756979,-0.79508418
1314274916.90747714,-0.30918425,0.50301445,-0.79321194
1314274916.95648956,-0.31000844,0.50619811,-0.79527664
1314274917.00405622,-0.31157711,0.50594187,-0.79344040
1314274917.05650210,-0.31128091,0.50797290,-0.79503340
1314274917.10847497,-0.31119162,0.50566518,-0.79155570
1314274917.15658998,-0.31040072,0.50581086,-0.79416966
1314274917.20445919,-0.31008899,0.50580013,-0.79348725
1314274917.25602078,-0.31200188,0.50506854,-0.79385686
1314274917.30393028,-0.31066450,0.50681967,-0.79392642
1314274917.35644007,-0.30759484,0.50795197,-0.79681629
1314274917.40390754,-0.31072679,0.50454098,-0.79298270
1314274917.45645475,-0.31001690,0.50581074,-0.79454643
1314274917.50441098,-0.30957291,0.50666738,-0.79246366
1314274917.55660033,-0.31025237,0.50669956,-0.79476255
1314274917.60844707,-0.31084046,0.50517875,-0.79345554
1314274917.65657330,-0.30995157,0.50606132,-0.79434186
1314274917.70746231,-0.31217009,0.50443310,-0.79312718
1314274917.75513148,-0.31077719,0.50733185,-0.79439843
1314274917.80787230,-0.31063932,0.50607061,-0.79451412
1314274917.85647416,-0.31079447,0.50642926,-0.79253167
1314274917.90766716,-0.30974975,0.50680268,-0.79313946
1314274917.95559478,-0.31095806,0.50696421,-0.79520363
1314274918.00901628,-0.30992764,0.50605673,-0.79394168
1314274918.05659437,-0.30909485,0.50793296,-0.79337627
1314274918.10859752,-0.31038374,0.50503880,-0.79263085
1314274918.15646672,-0.31008732,0.50908512,-0.79397327
1314274918.20859647,-0.31173193,0.50570631,-0.79470676
1314274918.25647879,-0.31004459,0.50668430,-0.79355419
1314274918.30848813,-0.31010306,0.50454384,-0.79387742
1314274918.35657310,-0.30992773,0.50770658,-0.79508704
1314274918.40442753,-0.31151900,0.50570339,-0.79476434
1314274918.45548487,-0.30805570,0.50857192,-0.79538524
1314274918.50748277,-0.30985805,0.50593072,-0.79413956
1314274918.55645823,-0.30976337,0.50758529,-0.79553884
1314274918.60850453,-0.31172204,0.50444514,-0.79469687
1314274918.65650344,-0.30938455,0.50620097,-0.79617155
1314274918.70854354,-0.31090826,0.50569540,-0.79452670
1314274918.75551176,-0.30956548,0.50883120,-0.79434037
1314274918.80452991,-0.31121814,0.50707960,-0.79409283
1314274918.85548663,-0.31105897,0.50722390,-0.79594547
1314274918.90849996,-0.31007373,0.50594753,-0.79548103
1314274918.95645118,-0.30973169,0.50721437,-0.79640120
1314274919.00456738,-0.30959913,0.50655955,-0.79426235
1314274919.05646825,-0.30980682,0.50657481,-0.79547042
1314274919.10851884,-0.31110835,0.50431329,-0.79486346
1314274919.15650415,-0.30908605,0.50645769,-0.79702324
1314274919.20447206,-0.30927819,0.50543839,-0.79583049
1314274919.25669742,-0.31040430,0.50734675,-0.79630768
1314274919.30747867,-0.31121594,0.50584459,-0.79647583
1314274919.35657549,-0.30914548,0.50733745,-0.79656512
1314274919.40445280,-0.30980286,0.50341278,-0.79444659
1314274919.45646977,-0.31123495,0.50659055,-0.79534960
1314274919.50444269,-0.30981833,0.50646245,-0.79659706
1314274919.55590844,-0.30911753,0.50783581,-0.79603553
1314274919.60442352,-0.30990583,0.50428957,-0.79379433
1314274919.65651202,-0.31063691,0.50785762,-0.79652125
1314274919.70756006,-0.30930573,0.50631183,-0.79483855
1314274919.75646734,-0.30887452,0.50846785,-0.79642510
1314274919.80756950,-0.31098798,0.50671810,-0.79573524
1314274919.85647607,-0.31152096,0.50595558,-0.79476631
1314274919.90405130,-0.31155127,0.50467795,-0.79316372
1314274919.95554566,-0.30983996,0.50768983,-0.79361999
1314274920.00625515,-0.31011188,0.50668579,-0.79376096
1314274920.05591941,-0.30968785,0.50670242,-0.79573041
1314274920.10791445,-0.31085035,0.50643992,-0.79346550
1314274920.15649199,-0.30890176,0.50781900,-0.79469371
1314274920.20795178,-0.31010681,0.50541246,-0.79248482
1314274920.25645757,-0.30968469,0.50568134,-0.79445672
1314274920.30789709,-0.30991161,0.50706106,-0.79354942
1314274920.35646248,-0.31131595,0.50771493,-0.79429913
1314274920.40440464,-0.31097230,0.50669068,-0.79320842
1314274920.45544624,-0.30963936,0.50808972,-0.79566842
1314274920.50744128,-0.30874130,0.50564754,-0.79227567
1314274920.55645823,-0.30983534,0.50958949,-0.79422849
1314274920.60747790,-0.31026098,0.50564492,-0.79050142
1314274920.65645599,-0.30883771,0.50729144,-0.79276234
1314274920.70842075,-0.31114742,0.50618476,-0.79301894
1314274920.75661230,-0.30952534,0.50629365,-0.79306000
1314274920.80884218,-0.30998895,0.50630897,-0.79401696
1314274920.85577393,-0.30885038,0.50694060,-0.79528564
1314274920.90759540,-0.31139246,0.50616956,-0.79123461
1314274920.95645928,-0.30990165,0.50680733,-0.79341400
1314274921.00859547,-0.30975688,0.50466329,-0.79352278
1314274921.05646300,-0.30942571,0.50631034,-0.79457951
1314274921.10747862,-0.31019551,0.50656277,-0.79382777
1314274921.15577030,-0.30954966,0.50681329,-0.79432446
1314274921.20841813,-0.31335565,0.50569916,-0.79240668
1314274921.25643134,-0.30892974,0.50732064,-0.79522336
1314274921.30751300,-0.31000447,0.50569361,-0.79527265
1314274921.35644197,-0.30926612,0.50849390,-0.79844165
